EW8829 Weather Reports


time (UTC)temp
C
wind
direction
speed
KPH
gust
KPH
rain 1hr
cm
rain 24hr
cm
rain mn
cm
humidity
%
barometer
mb
20260505171504 23 242 9.7 20.9 0.00 0.00 0.00 47 1004.2
20260505171001 23 237 8.0 19.3 0.00 0.00 0.00 46 1004.2
20260505170458 23 324 3.2 24.1 0.00 0.00 0.00 47 1004.1
20260505165953 23 258 9.7 32.2 0.00 0.00 0.00 47 1004.1
20260505165450 24 184 1.6 16.1 0.00 0.00 0.00 46 1003.7
20260505164945 24 148 4.8 11.3 0.00 0.00 0.00 48 1003.8
20260505164442 24 222 6.4 9.7 0.00 0.00 0.00 45 1003.8
20260505163940 24 122 0.0 12.9 0.00 0.00 0.00 46 1003.7
20260505163438 24 225 6.4 12.9 0.00 0.00 0.00 46 1003.8
20260505162937 23 214 6.4 20.9 0.00 0.00 0.00 47 1004.0
20260505162433 23 272 8.0 27.4 0.00 0.00 0.00 47 1004.2
20260505161930 23 286 9.7 22.5 0.00 0.00 0.00 46 1004.2
20260505161426 23 247 6.4 29.0 0.00 0.00 0.00 46 1004.1
20260505160924 23 283 8.0 19.3 0.00 0.00 0.00 45 1004.3
20260505160422 24 222 20.9 29.0 0.00 0.00 0.00 45 1004.5
20260505152858 24 308 6.4 19.3 0.00 0.00 0.00 46 1004.4
20260505152355 23 220 22.5 38.6 0.00 0.00 0.00 46 1004.3
20260505151855 23 287 9.7 17.7 0.00 0.00 0.00 47 1004.5
20260505151352 24 188 14.5 22.5 0.00 0.00 0.00 46 1004.3
20260505150849 23 219 6.4 17.7 0.00 0.00 0.00 48 1004.5
20260505150347 23 202 6.4 33.8 0.00 0.00 0.00 47 1004.5
20260505140316 22 256 3.2 22.5 0.00 0.00 0.00 52 1004.6
20260505130240 18 106 3.2 14.5 0.00 0.00 0.00 67 1005.5
20260505124731 17 257 4.8 6.4 0.00 0.00 0.00 71 1005.7
20260505124227 17 155 0.0 6.4 0.00 0.00 0.00 73 1005.7
20260505123722 17 199 1.6 6.4 0.00 0.00 0.00 74 1005.7
20260505123220 16 222 6.4 9.7 0.00 0.00 0.00 73 1005.7
20260505122716 16 166 3.2 8.0 0.00 0.00 0.00 76 1005.7
20260505122214 16 88 1.6 3.2 0.00 0.00 0.00 79 1005.6
20260505121710 15 272 1.6 6.4 0.00 0.00 0.00 79 1005.7
20260505121207 15 163 3.2 6.4 0.00 0.00 0.00 80 1005.7
20260505120703 15 132 3.2 4.8 0.00 0.00 0.00 81 1005.8
20260505120159 15 146 1.6 4.8 0.00 0.00 0.00 81 1005.8
20260505115653 15 214 1.6 6.4 0.00 0.00 0.00 81 1005.4
20260505115151 15 103 3.2 4.8 0.00 0.00 0.00 81 1005.6
20260505114648 15 74 1.6 3.2 0.00 0.00 0.00 79 1005.1
20260505114144 15 155 3.2 8.0 0.00 0.00 0.00 77 1005.2
20260505113640 15 341 1.6 9.7 0.00 0.00 0.00 80 1005.6
20260505113137 15 260 3.2 8.0 0.00 0.00 0.00 81 1005.5
20260505112633 15 180 3.2 8.0 0.05 0.00 0.00 80 1005.4
20260505112132 14 238 0.0 4.8 0.05 0.00 0.00 81 1005.7
20260505111631 15 228 6.4 22.5 0.00 0.00 0.00 76 1005.9
20260505111127 14 131 4.8 6.4 0.00 0.00 0.00 73 1005.4
20260505110624 13 51 0.0 3.2 0.00 0.00 0.00 75 1005.6
20260505110121 13 24 0.0 3.2 0.00 0.00 0.00 76 1005.8
20260505102056 11 64 1.6 3.2 0.00 0.00 0.00 82 1005.6
20260505101555 11 56 0.0 3.2 0.00 0.00 0.00 81 1005.5
20260505101051 11 88 1.6 3.2 0.00 0.00 0.00 79 1005.3
20260505100548 12 65 3.2 4.8 0.00 0.00 0.00 78 1005.4
20260505100044 12 35 0.0 4.8 0.00 0.00 0.00 76 1005.3
20260505095541 12 89 0.0 3.2 0.00 0.00 0.00 76 1005.1
20260505095037 12 254 3.2 4.8 0.00 0.00 0.00 76 1005.2
20260505094534 12 331 1.6 1.6 0.00 0.00 0.00 77 1004.9
20260505094030 12 69 0.0 3.2 0.00 0.00 0.00 75 1004.8
20260505093527 13 249 0.0 3.2 0.00 0.00 0.00 74 1004.8
20260505093024 13 284 1.6 3.2 0.00 0.00 0.00 72 1004.7
20260505092521 13 303 0.0 1.6 0.00 0.00 0.00 73 1004.9
20260505092020 13 38 0.0 3.2 0.00 0.00 0.00 71 1004.8
20260505091516 13 285 3.2 3.2 0.00 0.00 0.00 70 1004.6
20260505091014 14 318 3.2 6.4 0.00 0.00 0.00 69 1004.5
20260505090512 13 343 1.6 6.4 0.00 0.00 0.00 70 1004.5
20260505090010 13 298 4.8 6.4 0.00 0.00 0.00 70 1004.6
20260505085508 13 320 3.2 4.8 0.00 0.00 0.00 70 1004.6
20260505085006 13 305 3.2 6.4 0.00 0.00 0.00 70 1004.7
20260505084503 13 347 1.6 4.8 0.00 0.00 0.00 69 1004.8
20260505084001 13 293 3.2 3.2 0.00 0.00 0.00 69 1004.5
20260505083458 13 317 1.6 3.2 0.00 0.00 0.00 69 1004.4
20260505082954 13 302 3.2 3.2 0.00 0.00 0.00 69 1004.7
20260505082450 13 300 3.2 3.2 0.00 0.00 0.00 68 1004.7
20260505081947 13 273 3.2 4.8 0.00 0.00 0.00 68 1004.5
20260505081444 14 274 1.6 4.8 0.00 0.00 0.00 67 1004.7
20260505080940 14 308 1.6 4.8 0.00 0.00 0.00 67 1004.5
20260505080436 14 311 3.2 3.2 0.00 0.00 0.00 67 1004.9
20260505075932 14 280 4.8 4.8 0.00 0.00 0.00 67 1004.8
20260505075429 14 321 3.2 3.2 0.00 0.00 0.00 66 1004.6
20260505074927 14 324 0.0 3.2 0.00 0.00 0.00 66 1004.7
20260505074424 15 291 1.6 3.2 0.00 0.00 0.00 66 1004.9
20260505073921 15 241 1.6 3.2 0.00 0.00 0.00 64 1004.8
20260505073419 15 243 0.0 3.2 0.00 0.00 0.00 62 1004.9
20260505072916 15 11 3.2 3.2 0.00 0.00 0.00 61 1004.7
20260505072411 15 318 1.6 1.6 0.00 0.00 0.00 62 1004.8
20260505071908 15 328 1.6 3.2 0.00 0.00 0.00 62 1004.8
20260505071404 15 302 1.6 3.2 0.00 0.00 0.00 62 1004.7
20260505070902 15 257 3.2 4.8 0.00 0.00 0.00 62 1004.8
20260505070358 15 126 0.0 3.2 0.00 0.00 0.00 61 1004.9
20260505065854 15 198 3.2 6.4 0.00 0.00 0.00 60 1004.6
20260505065351 15 310 0.0 3.2 0.00 0.00 0.00 61 1004.9
20260505064848 15 214 0.0 1.6 0.00 0.00 0.00 61 1004.9
20260505064345 15 123 0.0 4.8 0.00 0.00 0.00 60 1004.8
20260505063843 15 121 0.0 6.4 0.00 0.00 0.00 59 1005.0
20260505063339 15 254 3.2 3.2 0.00 0.00 0.00 59 1004.8
20260505062836 16 58 4.8 4.8 0.00 0.00 0.00 58 1004.8
20260505062333 16 198 1.6 6.4 0.00 0.00 0.00 56 1004.9
20260505061830 16 310 1.6 6.4 0.00 0.00 0.00 56 1005.0
20260505061328 16 1 1.6 6.4 0.00 0.00 0.00 57 1004.7
20260505060825 16 337 0.0 6.4 0.00 0.00 0.00 56 1004.7
20260505060322 16 88 1.6 9.7 0.00 0.00 0.00 56 1005.0
20260505055817 16 186 4.8 8.0 0.00 0.00 0.00 56 1004.7
20260505055314 16 215 3.2 4.8 0.00 0.00 0.00 56 1004.8
20260505054812 16 141 3.2 4.8 0.00 0.00 0.00 58 1004.9
20260505054308 15 304 3.2 4.8 0.00 0.00 0.00 59 1005.0
20260505053807 16 198 3.2 4.8 0.00 0.00 0.00 58 1005.1
20260505053303 15 179 4.8 4.8 0.00 0.00 0.00 58 1004.9
20260505052800 16 223 1.6 3.2 0.00 0.00 0.00 57 1005.0
20260505052257 16 212 4.8 6.4 0.00 0.00 0.00 56 1004.8
20260505051754 16 265 4.8 4.8 0.00 0.00 0.00 55 1005.0
20260505051252 16 336 3.2 6.4 0.00 0.00 0.00 54 1004.9
20260505050750 17 204 4.8 16.1 0.00 0.00 0.00 53 1004.8
20260505050248 16 236 11.3 12.9 0.00 0.00 0.00 55 1005.0
20260505041718 16 264 3.2 6.4 0.00 0.00 0.00 57 1004.8
20260505041215 16 20 3.2 3.2 0.00 0.00 0.00 55 1004.9
20260505040712 16 139 1.6 4.8 0.00 0.00 0.00 54 1004.7
20260505040209 16 105 1.6 6.4 0.00 0.00 0.00 54 1004.9
20260505035706 16 155 1.6 6.4 0.00 0.00 0.00 53 1004.8
20260505035202 16 245 6.4 6.4 0.00 0.00 0.00 53 1004.7
20260505034658 17 243 4.8 4.8 0.00 0.00 0.00 53 1004.6
20260505034156 17 188 3.2 6.4 0.00 0.00 0.00 52 1004.6
20260505033652 16 206 9.7 9.7 0.00 0.00 0.00 52 1004.7
20260505033151 17 189 3.2 8.0 0.00 0.00 0.00 52 1004.8
20260505032648 17 229 9.7 9.7 0.00 0.00 0.00 51 1004.8
20260505032144 17 267 9.7 9.7 0.00 0.00 0.00 51 1004.7
20260505031642 17 233 3.2 17.7 0.00 0.00 0.00 50 1004.8
20260505031137 17 188 6.4 8.0 0.00 0.00 0.00 51 1004.8
20260505030635 17 85 3.2 19.3 0.00 0.00 0.00 50 1004.8
20260505030130 17 97 6.4 14.5 0.00 0.00 0.00 50 1004.9
20260505025626 17 241 6.4 6.4 0.00 0.00 0.00 50 1004.8
20260505025125 17 297 4.8 12.9 0.00 0.00 0.00 49 1004.8
20260505024622 17 7 3.2 9.7 0.00 0.00 0.00 50 1004.6
20260505024119 17 117 0.0 8.0 0.00 0.00 0.00 49 1005.0
20260505023617 17 181 3.2 9.7 0.00 0.00 0.00 49 1005.1
20260505023114 17 261 3.2 6.4 0.00 0.00 0.00 49 1004.8
20260505022611 17 289 3.2 11.3 0.00 0.00 0.00 48 1005.0
20260505022108 17 297 6.4 16.1 0.00 0.00 0.00 48 1005.1
20260505021605 17 266 4.8 6.4 0.00 0.00 0.00 49 1005.1
20260505021102 17 259 3.2 6.4 0.00 0.00 0.00 48 1005.1
20260505020602 18 162 4.8 9.7 0.00 0.00 0.00 48 1005.0
20260505020059 18 189 1.6 8.0 0.00 0.00 0.00 47 1005.0
20260505015556 17 239 3.2 6.4 0.00 0.00 0.00 47 1005.0
20260505015053 17 265 3.2 9.7 0.00 0.00 0.00 47 1004.8
20260505014549 17 200 4.8 8.0 0.00 0.00 0.00 47 1004.9
20260505014047 17 162 4.8 8.0 0.00 0.00 0.00 47 1004.8
20260505013543 18 236 1.6 11.3 0.00 0.00 0.00 47 1004.9
20260505013041 17 164 3.2 6.4 0.00 0.00 0.00 47 1004.5
20260505012539 18 220 3.2 8.0 0.00 0.00 0.00 47 1004.5
20260505012036 17 247 4.8 6.4 0.00 0.00 0.00 47 1004.6
20260505011537 18 152 3.2 12.9 0.00 0.00 0.00 47 1004.6
20260505011034 18 199 8.0 11.3 0.00 0.00 0.00 46 1004.8
20260505010529 17 179 3.2 4.8 0.00 0.00 0.00 48 1004.4
20260505010026 17 234 3.2 4.8 0.00 0.00 0.00 48 1004.6
20260505005523 18 267 3.2 6.4 0.00 0.00 0.00 47 1004.5
20260505005020 18 213 1.6 9.7 0.00 0.00 0.00 46 1004.3
20260505004517 18 167 3.2 8.0 0.00 0.00 0.00 47 1004.4
20260505004014 18 262 9.7 9.7 0.00 0.00 0.00 44 1004.2
20260505003511 18 153 1.6 8.0 0.00 0.00 0.00 45 1004.2
20260505003008 19 262 8.0 9.7 0.00 0.00 0.00 44 1004.4
20260505002503 19 220 3.2 6.4 0.00 0.00 0.00 44 1004.4
20260505002002 19 73 3.2 8.0 0.00 0.00 0.00 44 1004.2
20260505001459 19 170 0.0 9.7 0.00 0.00 0.00 43 1004.2
20260505000956 19 98 1.6 6.4 0.00 0.00 0.00 43 1004.0
20260505000454 19 202 4.8 11.3 0.00 0.00 0.00 43 1004.1
20260504235951 19 96 3.2 9.7 0.00 0.00 0.00 43 1004.0
20260504235448 19 188 1.6 8.0 0.00 0.00 0.00 42 1004.1
20260504234944 20 51 4.8 9.7 0.00 0.00 0.00 42 1004.0
20260504234441 20 246 4.8 12.9 0.00 0.00 0.00 41 1003.8
20260504233938 20 96 1.6 12.9 0.00 0.00 0.00 41 1003.9
20260504233434 20 316 1.6 11.3 0.00 0.00 0.00 41 1004.0
20260504232931 20 154 4.8 19.3 0.00 0.00 0.00 40 1003.8
20260504232428 20 229 12.9 20.9 0.00 0.00 0.00 39 1003.8
20260504231925 21 173 4.8 27.4 0.00 0.00 0.00 38 1003.7
20260504231421 21 209 9.7 17.7 0.00 0.00 0.00 38 1003.9
20260504230917 21 192 6.4 8.0 0.00 0.00 0.00 39 1003.8
20260504230415 21 229 1.6 8.0 0.00 0.00 0.00 39 1003.4
20260504225914 21 249 8.0 8.0 0.00 0.00 0.00 38 1003.3
20260504225410 21 329 3.2 4.8 0.00 0.00 0.00 38 1003.5
20260504224907 21 138 4.8 12.9 0.00 0.00 0.00 39 1003.5
20260504224404 21 252 4.8 6.4 0.00 0.00 0.00 38 1003.5
20260504223901 21 146 16.1 16.1 0.00 0.00 0.00 37 1003.7
20260504223356 21 158 3.2 14.5 0.00 0.00 0.00 37 1003.5
20260504222852 22 216 16.1 19.3 0.00 0.00 0.00 36 1003.7
20260504222349 22 165 4.8 20.9 0.00 0.00 0.00 38 1003.4
20260504221848 23 128 3.2 9.7 0.00 0.00 0.00 34 1003.4
20260504221344 22 256 4.8 16.1 0.00 0.00 0.00 32 1003.5
20260504220842 22 220 4.8 24.1 0.00 0.00 0.00 32 1003.3
20260504220338 23 256 8.0 12.9 0.00 0.00 0.00 31 1003.4
20260504215835 23 308 3.2 17.7 0.00 0.00 0.00 32 1003.4
20260504215331 23 217 3.2 12.9 0.00 0.00 0.00 32 1003.4
20260504214828 23 180 3.2 11.3 0.00 0.00 0.00 33 1003.5
20260504214325 23 288 6.4 16.1 0.00 0.00 0.00 33 1003.3
20260504213822 23 359 3.2 8.0 0.00 0.00 0.00 33 1003.3
20260504213317 23 211 8.0 20.9 0.00 0.00 0.00 32 1003.5
20260504212815 23 238 6.4 12.9 0.00 0.00 0.00 33 1003.4
20260504212311 23 217 11.3 20.9 0.00 0.00 0.00 31 1003.4
20260504211809 23 108 3.2 11.3 0.00 0.00 0.00 32 1003.3
20260504211304 23 125 4.8 14.5 0.00 0.00 0.00 33 1003.5
20260504210802 22 266 9.7 20.9 0.00 0.00 0.00 33 1003.5
20260504210259 22 252 9.7 11.3 0.00 0.00 0.00 34 1003.7
20260504205757 22 254 4.8 11.3 0.00 0.00 0.00 33 1003.9
20260504205254 22 123 9.7 17.7 0.00 0.00 0.00 33 1004.0
20260504204752 22 247 6.4 17.7 0.00 0.00 0.00 33 1003.8
20260504204250 22 285 8.0 19.3 0.00 0.00 0.00 34 1003.8
20260504203749 21 190 12.9 19.3 0.00 0.00 0.00 36 1004.1
20260504203246 21 208 8.0 14.5 0.00 0.00 0.00 36 1004.0
20260504202747 22 272 4.8 19.3 0.00 0.00 0.00 34 1004.1
20260504202244 22 246 4.8 12.9 0.00 0.00 0.00 35 1004.2
20260504201741 22 146 6.4 12.9 0.00 0.00 0.00 35 1004.4
20260504201238 22 1 4.8 14.5 0.00 0.00 0.00 37 1004.1
20260504200736 21 221 6.4 17.7 0.00 0.00 0.00 36 1004.4
20260504200231 22 279 6.4 27.4 0.00 0.00 0.00 37 1004.7
20260504195728 22 258 19.3 20.9 0.00 0.00 0.00 35 1004.7
20260504195224 21 213 3.2 9.7 0.00 0.00 0.00 36 1004.5
20260504194722 21 298 3.2 12.9 0.00 0.00 0.00 38 1004.7
20260504194218 21 246 6.4 16.1 0.00 0.00 0.00 38 1005.0
20260504193714 20 265 4.8 17.7 0.00 0.00 0.00 38 1004.7
20260504193212 20 327 3.2 14.5 0.00 0.00 0.00 38 1004.9
20260504192710 20 226 4.8 14.5 0.00 0.00 0.00 39 1004.8
20260504192208 21 272 14.5 29.0 0.00 0.00 0.00 37 1004.9
20260504191706 21 144 3.2 27.4 0.00 0.00 0.00 38 1004.9
20260504191202 21 65 4.8 27.4 0.00 0.00 0.00 38 1004.9
20260504190658 21 241 4.8 16.1 0.00 0.00 0.00 39 1005.1
20260504190154 21 239 4.8 19.3 0.00 0.00 0.00 38 1005.0
20260504185651 21 108 0.0 9.7 0.00 0.00 0.00 39 1005.0
20260504185148 21 117 6.4 14.5 0.00 0.00 0.00 39 1005.0
20260504184644 21 260 11.3 22.5 0.00 0.00 0.00 36 1005.1
20260504184139 21 48 9.7 24.1 0.00 0.00 0.00 38 1005.1
20260504183636 21 286 8.0 24.1 0.00 0.00 0.00 38 1005.2
20260504183133 21 229 11.3 30.6 0.00 0.00 0.00 37 1005.4
20260504182631 21 267 17.7 32.2 0.00 0.00 0.00 37 1005.5
20260504182128 21 166 6.4 30.6 0.00 0.00 0.00 37 1005.3
20260504181626 21 11 3.2 17.7 0.00 0.00 0.00 39 1005.2
20260504181123 21 309 8.0 16.1 0.00 0.00 0.00 38 1005.3
20260504180622 21 249 14.5 27.4 0.00 0.00 0.00 37 1005.6
20260504180121 21 248 6.4 19.3 0.00 0.00 0.00 38 1005.5
20260504175617 20 246 20.9 20.9 0.00 0.00 0.00 39 1005.5
20260504175114 21 274 16.1 22.5 0.00 0.00 0.00 39 1005.5
20260504174612 21 151 6.4 17.7 0.00 0.00 0.00 40 1005.5
20260504174108 21 251 8.0 14.5 0.00 0.00 0.00 37 1005.5
20260504173605 21 251 3.2 22.5 0.00 0.00 0.00 42 1005.5
20260504173103 21 181 6.4 22.5 0.00 0.00 0.00 40 1005.6
20260504172559 21 258 19.3 22.5 0.00 0.00 0.00 40 1005.8
20260504172056 20 233 16.1 20.9 0.00 0.00 0.00 40 1005.6